Rochester/St. Mary\'s Hospita, MN

8:41 PM CST on December 13, 2019 (GMT -0600)
Rochester/St. Mary\'s Hospita

Weather History for K9MN - October, 2019

Change the Weather History Date:

Wednesday, October 30, 2019

  Actual Average (WUND) Record (WUND)
Temperature  
Mean Temperature 28 °F -  
Max Temperature 32 °F - - (-1)
Min Temperature 25 °F - - (-1)
Degree Days  
Heating Degree Days 36    
Moisture  
Dew Point 16 °F    
Average Humidity 57    
Maximum Humidity 68    
Minimum Humidity 47    
Precipitation  
Precipitation 0.00 in - - ()
Sea Level Pressure  
Sea Level Pressure 30.28 in    
Wind  
Wind Speed 6 mph (WNW)    
Max Wind Speed 9 mph    
Max Gust Speed -    
Visibility 10 miles    
Events      
Averages and records for this station are not official NWS values.
T = Trace of Precipitation, MM = Missing Value Source: NWS Daily Summary

Daily Weather History Graph

Daily Weather History Graph

Search for Another Location

Airport or City:

Astronomy

Oct. 30, 2019 Rise Set
Actual Time 7:43 AM CDT 6:02 PM CDT
Civil Twilight 7:13 AM CDT 6:32 PM CDT
Nautical Twilight 6:39 AM CDT 7:06 PM CDT
Astronomical Twilight 6:06 AM CDT 7:40 PM CDT
Moon 10:31 AM CDT (10/30) 8:06 PM CDT (10/30)
Length of Visible Light 11h 19m
Length of Day
10h 19m
Waxing Crescent, 9% of the Moon is Illuminated
Oct 30
Waxing Crescent
Nov 4
First Quarter
Nov 12
Full
Nov 19
Last Quarter
Nov 26
New

Hourly Weather History & Observations

Time (CDT) Temp. Windchill Dew Point Humidity Pressure Visibility Wind Dir Wind Speed Gust Speed Precip Events Conditions
12:15 AM 30.9 °F 26.2 °F 18.5 °F 60% 30.34 in 10.0 mi WNW 4.6 mph - N/A   Clear
12:35 AM 30.6 °F 25.8 °F 18.5 °F 61% 30.34 in 10.0 mi NW 4.6 mph - N/A   Clear
12:55 AM 30.4 °F 23.6 °F 18.1 °F 60% 30.34 in 10.0 mi WNW 6.9 mph - N/A   Clear
12:56 AM 30.2 °F 23.4 °F 18.0 °F 60% 30.34 in 10.0 mi WNW 6.9 mph - N/A   Clear
1:15 AM 31.1 °F 26.4 °F 18.7 °F 60% 30.34 in 10.0 mi WNW 4.6 mph - N/A   Clear
1:35 AM 29.8 °F 22.2 °F 17.1 °F 59% 30.34 in 10.0 mi WNW 8.1 mph - N/A   Clear
1:55 AM 29.7 °F 24.7 °F 18.0 °F 62% 30.34 in 10.0 mi WNW 4.6 mph - N/A   Clear
1:56 AM 29.7 °F 24.7 °F 17.8 °F 61% 30.34 in 10.0 mi WNW 4.6 mph - N/A   Clear
2:15 AM 29.1 °F 22.1 °F 17.4 °F 62% 30.34 in 10.0 mi WNW 6.9 mph - N/A   Clear
2:16 AM 29.1 °F 21.3 °F 17.4 °F 62% 30.34 in 10.0 mi WNW 8.1 mph - N/A   Clear
2:35 AM 28.4 °F 22.2 °F 16.9 °F 62% 30.34 in 10.0 mi WNW 5.8 mph - N/A   Clear
2:55 AM 28.2 °F 22.0 °F 16.7 °F 62% 30.34 in 10.0 mi WNW 5.8 mph - N/A   Clear
3:15 AM 27.5 °F 20.2 °F 16.2 °F 62% 30.34 in 10.0 mi NW 6.9 mph - N/A   Clear
3:35 AM 27.5 °F 21.1 °F 16.7 °F 64% 30.34 in 10.0 mi NW 5.8 mph - N/A   Clear
3:36 AM 27.5 °F 21.1 °F 16.7 °F 64% 30.34 in 10.0 mi WNW 5.8 mph - N/A   Clear
3:55 AM 27.5 °F 22.2 °F 17.1 °F 65% 30.34 in 10.0 mi WNW 4.6 mph - N/A   Clear
3:56 AM 27.5 °F 22.2 °F 16.9 °F 64% 30.34 in 10.0 mi WNW 4.6 mph - N/A   Clear
4:15 AM 27.3 °F 19.1 °F 16.5 °F 64% 30.34 in 10.0 mi WNW 8.1 mph - N/A   Clear
4:35 AM 27.1 °F 18.9 °F 16.5 °F 64% 30.33 in 10.0 mi WNW 8.1 mph - N/A   Clear
4:55 AM 27.0 °F 19.5 °F 16.3 °F 64% 30.34 in 10.0 mi NW 6.9 mph - N/A   Clear
4:56 AM 27.0 °F 20.5 °F 16.3 °F 64% 30.34 in 10.0 mi WNW 5.8 mph - N/A   Clear
5:15 AM 26.6 °F 21.2 °F 16.2 °F 65% 30.33 in 10.0 mi WNW 4.6 mph - N/A   Clear
5:16 AM 26.6 °F 21.2 °F 16.3 °F 65% 30.34 in 10.0 mi NW 4.6 mph - N/A   Clear
5:35 AM 26.6 °F 21.2 °F 16.5 °F 66% 30.35 in 10.0 mi WNW 4.6 mph - N/A   Clear
5:55 AM 26.6 °F - 16.9 °F 67% 30.35 in 10.0 mi Calm Calm - N/A   Clear
6:15 AM 26.6 °F 21.2 °F 17.1 °F 67% 30.35 in 10.0 mi West 4.6 mph - N/A   Clear
6:16 AM 26.6 °F 21.2 °F 17.4 °F 68% 30.35 in 10.0 mi WNW 4.6 mph - N/A   Clear
6:35 AM 27.0 °F 23.0 °F 17.8 °F 68% 30.36 in 10.0 mi WNW 3.5 mph - N/A   Scattered Clouds
6:36 AM 27.0 °F 23.0 °F 17.6 °F 68% 30.36 in 10.0 mi NW 3.5 mph - N/A   Mostly Cloudy
6:55 AM 27.1 °F 21.8 °F 17.8 °F 68% 30.36 in 10.0 mi WSW 4.6 mph - N/A   Overcast
7:15 AM 26.6 °F - 16.9 °F 67% 30.35 in 10.0 mi Calm Calm - N/A   Overcast
7:35 AM 25.7 °F 19.0 °F 16.3 °F 68% 30.34 in 10.0 mi NW 5.8 mph - N/A   Scattered Clouds
7:36 AM 25.7 °F 19.0 °F 16.2 °F 67% 30.34 in 10.0 mi WNW 5.8 mph - N/A   Scattered Clouds
7:55 AM 25.5 °F 21.3 °F 16.3 °F 68% 30.35 in 10.0 mi WNW 3.5 mph - N/A   Mostly Cloudy
8:35 AM 26.4 °F 22.4 °F 16.3 °F 66% 30.36 in 10.0 mi WNW 3.5 mph - N/A   Overcast
8:36 AM 26.4 °F 22.4 °F 16.5 °F 66% 30.36 in 10.0 mi WNW 3.5 mph - N/A   Overcast
8:55 AM 27.1 °F 23.2 °F 17.2 °F 66% 30.36 in 10.0 mi NW 3.5 mph - N/A   Overcast
8:56 AM 27.1 °F 23.2 °F 16.9 °F 65% 30.36 in 10.0 mi NW 3.5 mph - N/A   Overcast
9:15 AM 26.6 °F 21.2 °F 16.0 °F 64% 30.35 in 10.0 mi NW 4.6 mph - N/A   Overcast
9:35 AM 27.3 °F 23.4 °F 14.2 °F 58% 30.34 in 10.0 mi NW 3.5 mph - N/A   Overcast
9:55 AM 28.0 °F 20.8 °F 12.9 °F 53% 30.34 in 10.0 mi NW 6.9 mph - N/A   Overcast
10:15 AM 28.4 °F 22.2 °F 12.2 °F 51% 30.35 in 10.0 mi WNW 5.8 mph - N/A   Overcast
10:35 AM 29.1 °F 24.1 °F 12.7 °F 50% 30.36 in 10.0 mi WNW 4.6 mph - N/A   Overcast
10:36 AM 29.1 °F - 12.7 °F 50% 30.36 in 10.0 mi Calm Calm - N/A   Overcast
10:55 AM 29.8 °F 24.9 °F 13.3 °F 50% 30.35 in 10.0 mi WSW 4.6 mph - N/A   Overcast
11:15 AM 29.3 °F 23.2 °F 12.6 °F 50% 30.35 in 10.0 mi WNW 5.8 mph - N/A   Overcast
11:35 AM 30.7 °F 24.9 °F 13.8 °F 50% 30.33 in 10.0 mi NW 5.8 mph - N/A   Overcast
11:36 AM 30.9 °F 26.2 °F 13.6 °F 49% 30.33 in 10.0 mi NW 4.6 mph - N/A   Overcast
11:55 AM 30.0 °F 24.1 °F 12.9 °F 49% 30.34 in 10.0 mi NW 5.8 mph - N/A   Overcast
11:56 AM 30.0 °F 23.2 °F 12.9 °F 49% 30.33 in 10.0 mi NW 6.9 mph - N/A   Overcast
12:15 PM 30.7 °F 24.1 °F 14.0 °F 50% 30.33 in 10.0 mi West 6.9 mph - N/A   Overcast
12:35 PM 30.7 °F 26.0 °F 13.6 °F 49% 30.31 in 10.0 mi WNW 4.6 mph - N/A   Overcast
12:36 PM 30.7 °F 24.1 °F 13.6 °F 49% 30.31 in 10.0 mi NW 6.9 mph - N/A   Overcast
12:55 PM 31.5 °F 25.8 °F 14.0 °F 49% 30.30 in 10.0 mi West 5.8 mph - N/A   Overcast
12:56 PM 31.5 °F 25.8 °F 14.0 °F 49% 30.30 in 10.0 mi West 5.8 mph - N/A   Overcast
1:15 PM 30.2 °F 24.3 °F 13.1 °F 49% 30.29 in 10.0 mi West 5.8 mph - N/A   Overcast
1:35 PM 31.3 °F 25.6 °F 14.5 °F 50% 30.28 in 10.0 mi West 5.8 mph - N/A   Overcast
1:55 PM 30.9 °F 26.2 °F 13.8 °F 49% 30.27 in 10.0 mi West 4.6 mph - N/A   Overcast
1:56 PM 31.1 °F - 14.0 °F 49% 30.27 in 10.0 mi Calm Calm - N/A   Overcast
2:15 PM 31.6 °F 25.1 °F 13.5 °F 47% 30.26 in 10.0 mi WNW 6.9 mph - N/A   Overcast
2:35 PM 31.5 °F 25.8 °F 13.6 °F 48% 30.26 in 10.0 mi NW 5.8 mph - N/A   Overcast
2:55 PM 32.0 °F 24.8 °F 14.4 °F 48% 30.24 in 10.0 mi NW 8.1 mph - N/A   Overcast
3:15 PM 31.8 °F 28.5 °F 14.5 °F 49% 30.23 in 10.0 mi NW 3.5 mph - N/A   Overcast
3:16 PM 32.0 °F 26.4 °F 14.7 °F 49% 30.23 in 10.0 mi NW 5.8 mph - N/A   Overcast
3:35 PM 31.1 °F 25.4 °F 13.8 °F 49% 30.23 in 10.0 mi NW 5.8 mph - N/A   Mostly Cloudy
3:55 PM 31.1 °F 23.7 °F 14.2 °F 50% 30.23 in 10.0 mi NW 8.1 mph - N/A   Overcast
4:15 PM 30.7 °F 23.3 °F 14.0 °F 50% 30.23 in 10.0 mi NW 8.1 mph - N/A   Overcast
4:35 PM 30.7 °F 23.3 °F 14.7 °F 52% 30.22 in 10.0 mi WNW 8.1 mph - N/A   Overcast
4:36 PM 30.7 °F 23.3 °F 14.7 °F 52% 30.22 in 10.0 mi NW 8.1 mph - N/A   Overcast
4:55 PM 30.2 °F 24.3 °F 14.4 °F 52% 30.22 in 10.0 mi WNW 5.8 mph - N/A   Overcast
4:56 PM 30.2 °F 23.4 °F 14.5 °F 52% 30.22 in 10.0 mi WNW 6.9 mph - N/A   Overcast
5:15 PM 30.2 °F 21.9 °F 14.0 °F 51% 30.21 in 10.0 mi WNW 9.2 mph - N/A   Overcast
5:55 PM 30.4 °F 24.5 °F 13.8 °F 50% 30.20 in 10.0 mi NW 5.8 mph - N/A   Overcast
5:56 PM 30.4 °F 24.5 °F 14.0 °F 51% 30.20 in 10.0 mi NW 5.8 mph - N/A   Overcast
6:15 PM 30.9 °F 24.3 °F 14.7 °F 51% 30.20 in 10.0 mi NW 6.9 mph - N/A   Overcast
6:35 PM 30.7 °F 24.9 °F 14.9 °F 52% 30.21 in 10.0 mi WNW 5.8 mph - N/A   Overcast
6:55 PM 30.7 °F 23.3 °F 14.4 °F 51% 30.20 in 10.0 mi NW 8.1 mph - N/A   Overcast
6:56 PM 30.7 °F 23.3 °F 14.4 °F 51% 30.20 in 10.0 mi NW 8.1 mph - N/A   Overcast
7:15 PM 30.2 °F 24.3 °F 14.2 °F 51% 30.20 in 10.0 mi WNW 5.8 mph - N/A   Overcast
7:16 PM 30.2 °F 24.3 °F 14.4 °F 52% 30.20 in 10.0 mi NW 5.8 mph - N/A   Overcast
7:35 PM 30.6 °F 25.8 °F 15.1 °F 53% 30.19 in 10.0 mi NW 4.6 mph - N/A   Overcast
7:55 PM 30.7 °F 26.0 °F 14.9 °F 52% 30.19 in 10.0 mi NW 4.6 mph - N/A   Overcast
8:15 PM 29.8 °F 24.9 °F 14.7 °F 53% 30.19 in 10.0 mi NW 4.6 mph - N/A   Overcast
8:16 PM 29.8 °F 23.9 °F 14.7 °F 53% 30.19 in 10.0 mi NW 5.8 mph - N/A   Overcast
8:35 PM 29.8 °F 24.9 °F 15.4 °F 55% 30.17 in 10.0 mi WNW 4.6 mph - N/A   Mostly Cloudy
8:55 PM 29.5 °F 23.4 °F 15.1 °F 55% 30.17 in 10.0 mi NW 5.8 mph - N/A   Scattered Clouds
9:15 PM 29.5 °F 24.5 °F 16.0 °F 57% 30.17 in 10.0 mi NW 4.6 mph - N/A   Clear
9:16 PM 29.5 °F 23.4 °F 16.2 °F 58% 30.17 in 10.0 mi WNW 5.8 mph - N/A   Clear
9:35 PM 29.3 °F 24.3 °F 16.3 °F 58% 30.17 in 10.0 mi WNW 4.6 mph - N/A   Clear
9:36 PM 29.3 °F 23.2 °F 16.5 °F 59% 30.17 in 10.0 mi NW 5.8 mph - N/A   Clear
9:55 PM 28.9 °F 21.9 °F 16.3 °F 59% 30.19 in 10.0 mi WNW 6.9 mph - N/A   Mostly Cloudy
10:15 PM 28.6 °F 20.7 °F 17.1 °F 62% 30.18 in 10.0 mi WNW 8.1 mph - N/A   Overcast
10:35 PM 28.4 °F 19.7 °F 17.4 °F 63% 30.17 in 10.0 mi NW 9.2 mph - N/A   Overcast
10:36 PM 28.4 °F 20.4 °F 17.4 °F 63% 30.17 in 10.0 mi NW 8.1 mph - N/A   Overcast
10:55 PM 28.4 °F 20.4 °F 17.1 °F 63% 30.17 in 10.0 mi NW 8.1 mph - N/A   Mostly Cloudy
11:15 PM 28.4 °F 23.3 °F 17.4 °F 63% 30.16 in 10.0 mi NW 4.6 mph - N/A   Scattered Clouds
11:35 PM 28.2 °F 21.0 °F 17.1 °F 63% 30.15 in 10.0 mi NW 6.9 mph - N/A   Mostly Cloudy
11:36 PM 28.2 °F 21.0 °F 16.9 °F 63% 30.15 in 10.0 mi NW 6.9 mph - N/A   Mostly Cloudy
11:55 PM 27.5 °F 18.6 °F 17.4 °F 66% 30.14 in 10.0 mi NW 9.2 mph - N/A   Overcast
11:56 PM 27.5 °F 18.6 °F 17.4 °F 66% 30.14 in 10.0 mi NW 9.2 mph - N/A   Overcast